[[{"header":{"parameterUnit":"m.s-1","parameterCategory":1,"la1":30.2991,"la2":30.254,"lo1":-89.0895,"lo2":-89.0444,"dy":0.0017,"dx":0.0017,"nx":28,"ny":28,"refTime":"2024-05-03T09:00:00:Z","depth":0,"parameterNumber":2,"parameterNumberName":"U-component_of_WINDS"},"data":[0,0,0,0,0,0,0,0,0,0,0,0,0,0,0,0,0,0,0,0,0,0,0,0,0,0,0,0,0,0,0,0,0,0,0,0,0,0,0,0,0,0,0,0,0,0,0,0,0,0,0,0,0,0,0,0,0,0,-3.0934,-3.0934,0,-3.099,-3.099,-3.0991,-3.0943,-3.0941,-3.0939,-3.0937,-3.0995,-3.0999,-3.1002,0,0,0,0,0,0,0,0,0,0,0,0,0,-3.0787,-3.079,-3.0934,-3.0934,-3.0935,-3.099,-3.099,-3.0991,-3.0943,-3.0941,-3.0938,-3.0936,-3.0994,-3.0998,-3.1002,0,0,0,0,0,0,0,0,0,0,0,0,0,-3.0848,-3.0791,-3.0934,-3.0918,-3.0917,-3.099,-3.099,-3.0991,-3.0944,-3.0941,-3.0938,-3.0935,-3.0993,-3.0998,-3.1003,-3.1094,0,0,-3.1019,-3.1021,0,0,0,0,0,0,0,0,-3.0844,-3.0853,-3.0919,-3.0919,-3.0918,-3.0956,-3.096,-3.1026,-3.0945,-3.0934,-3.0937,-3.0934,-3.0985,-3.099,-3.1007,-3.1097,-3.1099,-3.1019,-3.1022,-3.1024,-3.1026,0,0,0,0,0,0,0,-3.084,-3.0851,-3.0956,-3.092,-3.092,-3.0908,-3.0914,-3.0972,-3.0975,-3.0934,-3.0931,-3.0938,-3.0984,-3.1003,-3.1009,-3.11,-3.1019,-3.1023,-3.1027,-3.1029,-3.1267,-3.1271,0,0,0,0,0,0,-3.0837,-3.0847,-3.0954,-3.0958,-3.0873,-3.0914,-3.0919,-3.0947,-3.0975,-3.0976,-3.0941,-3.0936,-3.0995,-3.1003,-3.101,-3.1118,-3.1024,-3.1029,-3.1032,-3.1264,-3.1268,-3.1272,0,0,0,0,0,0,-3.0834,-3.0847,-3.0952,-3.0902,-3.0914,-3.0919,-3.0951,-3.095,-3.0968,-3.0979,-3.098,-3.0959,-3.0993,-3.1003,-3.1074,-3.112,-3.1031,-3.1036,-3.126,-3.1265,-3.127,-3.1335,0,0,0,0,0,0,-3.083,-3.0847,-3.0881,-3.0903,-3.0917,-3.1014,-3.0954,-3.0953,-3.0977,-3.0971,-3.0997,-3.0998,-3.0992,-3.1066,-3.1079,-3.1125,-3.104,-3.1256,-3.1263,-3.1268,-3.1329,-3.1342,-3.1353,0,0,0,0,0,-3.0825,-3.0897,-3.0883,-3.0896,-3.096,-3.1017,-3.1025,-3.1016,-3.0981,-3.1016,-3.1023,-3.0997,-3.1113,-3.1074,-3.1088,-3.1136,-3.1253,-3.1261,-3.1268,-3.1324,-3.1339,-3.1353,0,0,0,0,0,0,-3.0881,-3.09,-3.0884,-3.0965,-3.099,-3.1008,-3.1051,-3.1033,-3.1067,-3.106,-3.1048,-3.1054,-3.1128,-3.114,-3.1096,-3.1226,-3.1178,-3.1188,-3.1215,-3.123,-3.1242,-3.1237,-3.1044,0,0,0,0,0,-3.0902,-3.0947,-3.0961,-3.1031,-3.1044,-3.1046,-3.1071,-3.1062,-3.1087,-3.1097,-3.1109,-3.1135,-3.1177,-3.1205,-3.1244,-3.1331,-3.1336,-3.1372,-3.1384,-3.1393,-3.1402,-3.1448,-3.1464,-3.1296,-3.1296,-3.1296,0,0,-3.0947,-3.0963,-3.0992,-3.1043,-3.1061,-3.1107,-3.1055,-3.1106,-3.114,-3.1105,-3.1171,-3.1182,-3.121,-3.1289,-3.1324,-3.13,-3.145,-3.1403,-3.141,-3.1414,-3.1458,-3.1474,-3.1488,-3.1301,-3.13,-3.1299,0,0,-3.1052,-3.107,-3.1129,-3.1149,-3.1177,-3.1178,-3.1192,-3.1214,-3.122,-3.1287,-3.1261,-3.1302,-3.1375,-3.1395,-3.1415,-3.1531,-3.1508,-3.1544,-3.1605,-3.1651,-3.1664,-3.1676,-3.1716,-3.173,-3.1553,-3.1553,-3.1553,0,-3.1105,-3.1173,-3.1163,-3.1216,-3.1239,-3.1209,-3.127,-3.1289,-3.1329,-3.1346,-3.1319,-3.141,-3.1426,-3.151,-3.1538,-3.1556,-3.1572,-3.154,-3.1663,-3.1675,-3.1685,-3.1723,-3.1738,-3.1557,-3.1557,-3.1556,-3.1556,0,-3.1235,-3.1283,-3.1329,-3.1367,-3.1396,-3.1453,-3.1451,-3.1482,-3.1471,-3.1475,-3.1544,-3.1563,-3.1606,-3.1626,-3.1616,-3.1708,-3.1692,-3.1665,-3.1615,-3.1706,-3.1741,-3.1755,-3.1563,-3.1562,-3.156,-3.1559,0,0,-3.1374,-3.1408,-3.1424,-3.1441,-3.1471,-3.1508,-3.1564,-3.1606,-3.1631,-3.1661,-3.1707,-3.177,-3.1745,-3.1768,-3.176,-3.1801,-3.1889,-3.1768,-3.1768,-3.1788,-3.1991,-3.201,-3.2027,-3.1876,-3.1878,-3.1881,-3.1988,0,-3.1479,-3.1576,-3.1569,-3.166,-3.1704,-3.1677,-3.1726,-3.175,-3.1756,-3.1794,-3.1801,-3.1845,-3.181,-3.1823,-3.1862,-3.187,-3.1929,-3.1863,-3.1918,-3.192,-3.1909,-3.2046,-3.2066,-3.2166,-3.2002,-3.2004,-3.2006,0,-3.1614,-3.1647,-3.1743,-3.1766,-3.1784,-3.1828,-3.1865,-3.1903,-3.193,-3.1931,-3.1958,-3.1944,-3.2001,-3.1952,-3.203,-3.1985,-3.2008,-3.2015,-3.2019,-3.2022,-3.1967,-3.2051,-3.2198,-3.2212,-3.2028,-3.2026,-3.2025,0,-3.1704,-3.1773,-3.1839,-3.1855,-3.1884,-3.1915,-3.1929,-3.1953,-3.1978,-3.2012,-3.2028,-3.2069,-3.209,-3.2122,-3.2119,-3.2084,-3.2198,-3.2149,-3.22,-3.22,-3.2223,-3.2222,-3.2375,-3.2242,-3.2242,-3.2241,-3.2241,0,-3.1821,-3.1879,-3.1879,-3.192,-3.1985,-3.1978,-3.2043,-3.2054,-3.2075,-3.2117,-3.2098,-3.2138,-3.2133,-3.2174,-3.2172,-3.2237,-3.2247,-3.225,-3.2248,-3.225,-3.2249,-3.2263,-3.2255,-3.2245,-3.2244,-3.2244,-3.2243,0,-3.1931,-3.1933,-3.2003,-3.2025,-3.2032,-3.208,-3.2099,-3.2137,-3.2142,-3.2196,-3.2208,-3.2216,-3.2263,-3.2264,-3.2318,-3.2317,-3.2395,-3.2387,-3.2385,-3.2383,-3.2433,-3.2428,-3.2599,-3.262,-3.2475,-3.2476,-3.2478,0,-3.2004,-3.2048,-3.2076,-3.2102,-3.2118,-3.2161,-3.2187,-3.2183,-3.2211,-3.2246,-3.228,-3.2325,-3.236,-3.2436,-3.2447,-3.2488,-3.2479,-3.2536,-3.2485,-3.2485,-3.2478,-3.2474,-3.2478,-3.2545,-3.2547,-3.2548,-3.2549,0,-3.2133,-3.2132,-3.217,-3.221,-3.2241,-3.2272,-3.23,-3.2324,-3.2322,-3.2355,-3.2402,-3.243,-3.2485,-3.253,-3.257,-3.2584,-3.2567,-3.2566,-3.258,-3.2581,-3.2578,-3.2578,-3.241,-3.2561,-3.256,-3.2559,-3.2559,-3.2558,-3.2225,-3.2264,-3.2289,-3.2332,-3.2353,-3.2381,-3.2418,-3.2428,-3.2467,-3.2511,-3.2507,-3.2559,-3.2586,-3.2638,-3.2656,-3.2697,-3.2677,-3.2697,-3.2702,-3.2707,-3.2711,-3.2573,-3.2705,-3.2704,-3.2704,-3.2704,-3.2704,0,-3.2352,-3.2367,-3.2407,-3.2448,-3.2482,-3.2464,-3.2495,-3.2524,-3.2571,-3.2597,-3.2632,-3.2687,-3.2731,-3.2746,-3.2788,-3.2818,-3.2811,-3.2829,-3.2826,-3.2829,-3.2727,-3.271,-3.2834,-3.2834,-3.2834,-3.2834,-3.2834,-3.2834,-3.2421,-3.2485,-3.2488,-3.2562,-3.2577,-3.2628,-3.2647,-3.2672,-3.2693,-3.2755,-3.2791,-3.2801,-3.2823,-3.2866,-3.2906,-3.2909,-3.2925,-3.2946,-3.2946,-3.285,-3.2836,-3.2824,-3.2808,-3.295,-3.295,-3.3044,-3.3045,-3.3045]},{"header":{"parameterUnit":"m.s-1","parameterCategory":1,"la1":30.2991,"la2":30.254,"lo1":-89.0895,"lo2":-89.0444,"dy":0.0017,"dx":0.0017,"nx":28,"ny":28,"refTime":"2024-05-03T09:00:00:Z","depth":0,"parameterNumber":3,"parameterNumberName":"V-component_of_WINDS"},"data":[0,0,0,0,0,0,0,0,0,0,0,0,0,0,0,0,0,0,0,0,0,0,0,0,0,0,0,0,0,0,0,0,0,0,0,0,0,0,0,0,0,0,0,0,0,0,0,0,0,0,0,0,0,0,0,0,0,0,2.4752,2.4751,0,2.4735,2.4735,2.4734,2.4711,2.471,2.471,2.471,2.4692,2.4692,2.4692,0,0,0,0,0,0,0,0,0,0,0,0,0,2.4764,2.4763,2.4752,2.4751,2.4751,2.4735,2.4735,2.4734,2.4711,2.471,2.471,2.471,2.4693,2.4692,2.4692,0,0,0,0,0,0,0,0,0,0,0,0,0,2.4754,2.4763,2.4752,2.4738,2.4736,2.4735,2.4735,2.4734,2.4711,2.471,2.471,2.4709,2.4693,2.4692,2.4692,2.4704,0,0,2.4692,2.4692,0,0,0,0,0,0,0,0,2.4754,2.4753,2.474,2.4739,2.4737,2.4724,2.4732,2.4724,2.4711,2.4721,2.471,2.4709,2.4704,2.4702,2.4701,2.4703,2.4702,2.4692,2.4692,2.4692,2.4692,0,0,0,0,0,0,0,2.4755,2.4754,2.4745,2.474,2.4738,2.4732,2.473,2.4731,2.4716,2.472,2.4718,2.4716,2.4703,2.4701,2.47,2.4702,2.4692,2.4692,2.4692,2.4692,2.4712,2.4713,0,0,0,0,0,0,2.4758,2.4755,2.4746,2.4744,2.4744,2.4732,2.473,2.4729,2.4716,2.4713,2.4717,2.4715,2.4701,2.47,2.4699,2.4712,2.4692,2.4692,2.4692,2.4712,2.4712,2.4713,0,0,0,0,0,0,2.4758,2.4757,2.4746,2.4749,2.4747,2.4733,2.4732,2.4729,2.4727,2.4713,2.4711,2.4718,2.4701,2.47,2.4703,2.4711,2.4692,2.4691,2.4711,2.4712,2.4713,2.4736,0,0,0,0,0,0,2.4759,2.4757,2.4762,2.4749,2.4747,2.475,2.4732,2.4729,2.4727,2.4725,2.4714,2.4711,2.47,2.4703,2.4703,2.471,2.4691,2.471,2.4711,2.4712,2.4735,2.4738,2.4741,0,0,0,0,0,2.4759,2.4769,2.4762,2.4761,2.4752,2.475,2.4749,2.4736,2.4728,2.4732,2.4723,2.4711,2.471,2.4704,2.4703,2.4711,2.4709,2.4711,2.4712,2.4733,2.4737,2.4741,0,0,0,0,0,0,2.4782,2.4767,2.4759,2.4765,2.4759,2.4746,2.4751,2.4741,2.4737,2.4735,2.472,2.4718,2.4723,2.4717,2.471,2.4721,2.4708,2.4709,2.4724,2.4728,2.4731,2.4732,2.4691,0,0,0,0,0,2.4788,2.4788,2.4775,2.4782,2.4779,2.4766,2.4764,2.4755,2.4748,2.4746,2.4737,2.4731,2.4729,2.4728,2.4726,2.4734,2.4731,2.4739,2.4742,2.4744,2.4745,2.4749,2.4753,2.4718,2.4718,2.4718,0,0,2.48,2.4792,2.4793,2.4786,2.478,2.4781,2.4764,2.4765,2.4765,2.4746,2.4748,2.4742,2.4734,2.474,2.4742,2.4735,2.4755,2.4746,2.4748,2.4748,2.4751,2.4754,2.4757,2.4719,2.4718,2.4718,0,0,2.4823,2.4816,2.4821,2.4816,2.4807,2.4798,2.48,2.4788,2.4783,2.4785,2.4771,2.4771,2.4768,2.4763,2.476,2.4781,2.477,2.478,2.4796,2.48,2.4802,2.4805,2.4812,2.4815,2.4782,2.4782,2.4782,0,2.4839,2.4839,2.4825,2.4827,2.4824,2.4807,2.4812,2.4808,2.4799,2.4797,2.479,2.4786,2.478,2.4784,2.4789,2.4787,2.4788,2.4782,2.4803,2.4805,2.4807,2.4814,2.4817,2.4783,2.4783,2.4783,2.4783,0,2.4859,2.4859,2.4864,2.4856,2.4854,2.4857,2.4844,2.4844,2.4835,2.4827,2.4829,2.4821,2.4816,2.4817,2.4808,2.482,2.4816,2.4806,2.4793,2.4812,2.4818,2.4821,2.4785,2.4785,2.4784,2.4784,0,0,2.4895,2.488,2.4882,2.4878,2.4867,2.4867,2.487,2.4865,2.4865,2.486,2.4862,2.486,2.4851,2.4847,2.4838,2.4841,2.4858,2.4831,2.4831,2.4836,2.487,2.4878,2.4881,2.4851,2.4851,2.4852,2.4871,0,2.4915,2.4919,2.4907,2.4913,2.4913,2.4897,2.4899,2.4893,2.4886,2.4885,2.4876,2.4875,2.4863,2.4861,2.4864,2.4855,2.4865,2.4854,2.4852,2.4853,2.4855,2.4884,2.4892,2.4911,2.4873,2.4874,2.4874,0,2.4939,2.4935,2.4942,2.4931,2.493,2.4933,2.4927,2.4927,2.4919,2.4914,2.491,2.4899,2.4901,2.4889,2.4891,2.4884,2.4883,2.4878,2.4879,2.4878,2.4864,2.4884,2.4916,2.4919,2.4878,2.4877,2.4877,0,2.4965,2.4961,2.4964,2.4962,2.4949,2.4951,2.4946,2.4938,2.4936,2.4932,2.493,2.4926,2.4924,2.4921,2.491,2.4902,2.4913,2.49,2.4909,2.4909,2.4912,2.4912,2.4944,2.4911,2.4911,2.4911,2.4911,0,2.4988,2.4993,2.4976,2.4978,2.4983,2.4969,2.4974,2.4967,2.496,2.4961,2.4947,2.4948,2.4932,2.4931,2.4922,2.4926,2.4925,2.492,2.4918,2.4921,2.4922,2.492,2.4919,2.4912,2.4912,2.4912,2.4911,0,2.5018,2.5006,2.5009,2.4997,2.4994,2.4998,2.4988,2.4989,2.4981,2.4982,2.4981,2.4968,2.4967,2.4955,2.495,2.4944,2.4951,2.4946,2.4953,2.4952,2.4961,2.496,2.4993,2.4997,2.4962,2.4962,2.4963,0,2.5034,2.5037,2.5025,2.5025,2.502,2.5019,2.5017,2.5004,2.5002,2.4994,2.4997,2.4994,2.4991,2.4989,2.4979,2.4976,2.497,2.4982,2.497,2.4974,2.4971,2.4971,2.4971,2.4985,2.4985,2.4986,2.4986,0,2.5063,2.5057,2.5055,2.5051,2.5049,2.5045,2.504,2.504,2.5025,2.5024,2.5022,2.502,2.5016,2.5013,2.5008,2.5002,2.4992,2.499,2.4992,2.4996,2.5,2.4998,2.4961,2.4989,2.4989,2.4989,2.4989,2.4988,2.5086,2.5088,2.508,2.5078,2.5073,2.5069,2.507,2.5062,2.506,2.5055,2.5047,2.5047,2.5039,2.5031,2.5027,2.5026,2.502,2.5022,2.5023,2.5024,2.5026,2.5,2.5025,2.5025,2.5025,2.5025,2.5024,0,2.5115,2.5109,2.5107,2.5101,2.5099,2.5089,2.5083,2.5083,2.5082,2.5076,2.5074,2.5071,2.5069,2.5059,2.5055,2.5056,2.5051,2.5056,2.5056,2.5055,2.5032,2.503,2.506,2.506,2.506,2.506,2.506,2.506,2.5129,2.5133,2.5126,2.5126,2.512,2.5119,2.5117,2.5113,2.5108,2.5106,2.5104,2.5098,2.509,2.5086,2.5083,2.508,2.5079,2.5085,2.5081,2.506,2.5056,2.5053,2.5052,2.5085,2.5085,2.5104,2.5104,2.5104]}]]